Location: Adrasan
(36.3319°N, 30.4314°E)
Time: 08:01:23
(UTC+00:00)

Cosmos 1371 Rocket - Pass Details

Date: 09 December 2023
Orbit: 753 x 787 km, 74.0° (Epoch: 29 February)

Event Time Altitude Azimuth Distance (km) Brightness Sun altitude
Rises 15:17:16 0° 191° (S) 3,205 7.7 -7.0°
Reaches altitude 10° 15:19:37 10° 189° (S) 2,288 6.9 -7.5°
Maximum altitude 15:24:48 72° 105° (ESE) 807 4.0 -8.4°
Drops below altitude 10° 15:30:03 10° 22° (NNE) 2,326 6.1 -9.4°
Sets 15:32:28 0° 20° (NNE) 3,263 6.9 -9.9°
Enters shadow 15:32:30 - 20° (NNE) 3,279 6.9 -9.9°
